TimeCDT,TemperatureF,Dew PointF,Humidity,Sea Level PressureIn,VisibilityMPH,Wind Direction,Wind SpeedMPH,Gust SpeedMPH,PrecipitationIn,Events,Conditions,WindDirDegrees,DateUTC
12:15 AM,45.5,27.3,49,30.26,10.0,NW,5.8,-,N/A,,Clear,320,2013-10-07 05:15:00
12:35 AM,45.5,22.8,41,30.25,10.0,NNW,5.8,-,N/A,,Clear,330,2013-10-07 05:35:00
12:55 AM,45.7,23.7,42,30.25,10.0,Calm,Calm,-,N/A,,Clear,0,2013-10-07 05:55:00
1:15 AM,45.9,22.6,40,30.24,10.0,North,9.2,-,N/A,,Clear,360,2013-10-07 06:15:00
1:35 AM,45.5,22.8,41,30.24,10.0,West,4.6,-,N/A,,Clear,260,2013-10-07 06:35:00
1:55 AM,43.9,26.8,51,30.24,10.0,West,5.8,-,N/A,,Clear,270,2013-10-07 06:55:00
2:15 AM,42.4,28.4,58,30.24,10.0,West,5.8,-,N/A,,Clear,270,2013-10-07 07:15:00
2:35 AM,42.6,27.5,55,30.24,10.0,WSW,6.9,-,N/A,,Clear,250,2013-10-07 07:35:00
2:55 AM,41.9,27.5,57,30.24,10.0,West,6.9,-,N/A,,Clear,270,2013-10-07 07:55:00
3:15 AM,41.7,27.1,56,30.24,10.0,West,6.9,-,N/A,,Clear,260,2013-10-07 08:15:00
3:35 AM,41.4,25.9,54,30.24,10.0,West,4.6,-,N/A,,Clear,270,2013-10-07 08:35:00
3:55 AM,41.0,25.7,55,30.24,10.0,West,6.9,-,N/A,,Clear,260,2013-10-07 08:55:00
4:15 AM,39.6,26.2,59,30.24,10.0,West,5.8,-,N/A,,Clear,280,2013-10-07 09:15:00
4:35 AM,39.4,27.3,62,30.24,10.0,WSW,4.6,-,N/A,,Clear,240,2013-10-07 09:35:00
4:55 AM,40.1,25.2,55,30.24,10.0,West,4.6,-,N/A,,Clear,260,2013-10-07 09:55:00
5:15 AM,39.2,24.3,55,30.24,10.0,WNW,6.9,-,N/A,,Clear,290,2013-10-07 10:15:00
5:35 AM,39.4,24.3,55,30.24,10.0,West,4.6,-,N/A,,Clear,280,2013-10-07 10:35:00
5:55 AM,38.5,28.0,66,30.24,10.0,West,4.6,-,N/A,,Clear,260,2013-10-07 10:55:00
6:15 AM,37.0,26.6,66,30.24,10.0,West,5.8,-,N/A,,Clear,280,2013-10-07 11:15:00
6:35 AM,36.7,27.1,68,30.25,10.0,WSW,5.8,-,N/A,,Clear,250,2013-10-07 11:35:00
6:55 AM,37.6,26.6,65,30.26,10.0,WSW,5.8,-,N/A,,Clear,250,2013-10-07 11:55:00
7:15 AM,37.4,26.4,65,30.26,10.0,West,4.6,-,N/A,,Clear,260,2013-10-07 12:15:00
7:35 AM,37.2,25.0,61,30.26,7.0,WSW,5.8,-,N/A,,Clear,250,2013-10-07 12:35:00
7:55 AM,37.4,25.7,63,30.26,10.0,WSW,8.1,-,N/A,,Clear,240,2013-10-07 12:55:00
8:15 AM,38.3,25.7,61,30.26,10.0,West,4.6,-,N/A,,Clear,260,2013-10-07 13:15:00
8:35 AM,41.7,25.9,53,30.27,10.0,West,3.5,-,N/A,,Clear,260,2013-10-07 13:35:00
8:55 AM,45.1,26.1,47,30.27,10.0,Calm,Calm,-,N/A,,Clear,0,2013-10-07 13:55:00
9:15 AM,50.0,26.6,40,30.27,10.0,Calm,Calm,-,N/A,,Clear,0,2013-10-07 14:15:00
9:35 AM,54.7,26.4,34,30.27,10.0,West,3.5,-,N/A,,Clear,270,2013-10-07 14:35:00
9:55 AM,58.6,26.8,30,30.27,10.0,WSW,5.8,-,N/A,,Clear,250,2013-10-07 14:55:00
10:15 AM,63.3,26.8,25,30.27,7.0,SW,4.6,-,N/A,,Clear,230,2013-10-07 15:15:00
10:35 AM,67.1,26.8,22,30.27,10.0,SW,4.6,-,N/A,,Clear,220,2013-10-07 15:35:00
10:55 AM,68.5,27.1,21,30.27,10.0,SW,5.8,-,N/A,,Clear,220,2013-10-07 15:55:00
11:15 AM,70.0,27.5,20,30.27,10.0,SSW,5.8,-,N/A,,Clear,210,2013-10-07 16:15:00
11:35 AM,71.8,26.1,18,30.27,10.0,SW,6.9,-,N/A,,Clear,220,2013-10-07 16:35:00
11:55 AM,73.2,23.9,16,30.26,10.0,SSW,8.1,-,N/A,,Clear,200,2013-10-07 16:55:00
12:15 PM,74.5,23.2,15,30.26,10.0,SSW,11.5,-,N/A,,Clear,200,2013-10-07 17:15:00
12:35 PM,75.7,23.7,14,30.24,10.0,SW,9.2,-,N/A,,Clear,220,2013-10-07 17:35:00
12:55 PM,76.6,22.8,13,30.24,10.0,SSW,12.7,18.4,N/A,,Clear,210,2013-10-07 17:55:00
1:15 PM,77.4,22.8,13,30.23,10.0,SSW,9.2,18.4,N/A,,Clear,210,2013-10-07 18:15:00
1:35 PM,78.1,21.2,12,30.22,10.0,WSW,13.8,19.6,N/A,,Clear,240,2013-10-07 18:35:00
1:55 PM,78.6,21.2,12,30.21,10.0,SSW,9.2,19.6,N/A,,Clear,210,2013-10-07 18:55:00
2:15 PM,79.7,20.7,11,30.20,10.0,WSW,11.5,19.6,N/A,,Clear,240,2013-10-07 19:15:00
2:35 PM,80.1,21.0,11,30.18,10.0,South,12.7,16.1,N/A,,Clear,190,2013-10-07 19:35:00
2:55 PM,80.8,20.7,11,30.17,10.0,South,13.8,17.3,N/A,,Clear,190,2013-10-07 19:55:00
3:15 PM,80.6,20.5,11,30.17,10.0,SSW,15.0,20.7,N/A,,Clear,210,2013-10-07 20:15:00
3:35 PM,81.3,20.5,10,30.16,10.0,SSW,16.1,23.0,N/A,,Clear,210,2013-10-07 20:35:00
3:55 PM,82.0,20.3,10,30.15,10.0,SW,13.8,19.6,N/A,,Clear,220,2013-10-07 20:55:00
4:15 PM,81.9,20.3,10,30.14,10.0,SSW,8.1,17.3,N/A,,Clear,210,2013-10-07 21:15:00
4:35 PM,82.2,20.8,10,30.13,10.0,SSW,12.7,18.4,N/A,,Clear,200,2013-10-07 21:35:00
4:55 PM,81.7,20.3,10,30.13,10.0,SW,12.7,20.7,N/A,,Clear,220,2013-10-07 21:55:00
5:15 PM,81.5,20.3,10,30.12,10.0,SSW,12.7,18.4,N/A,,Clear,200,2013-10-07 22:15:00
5:35 PM,81.5,20.1,10,30.12,10.0,South,15.0,18.4,N/A,,Clear,190,2013-10-07 22:35:00
5:55 PM,81.0,20.1,10,30.11,10.0,SSW,12.7,19.6,N/A,,Clear,210,2013-10-07 22:55:00
6:15 PM,80.2,20.1,11,30.11,10.0,SSW,12.7,-,N/A,,Clear,200,2013-10-07 23:15:00
6:35 PM,79.0,21.2,12,30.11,10.0,South,13.8,-,N/A,,Clear,170,2013-10-07 23:35:00
6:55 PM,77.4,21.2,12,30.11,10.0,South,13.8,-,N/A,,Clear,170,2013-10-07 23:55:00
7:15 PM,74.7,21.7,14,30.11,10.0,South,11.5,-,N/A,,Clear,170,2013-10-08 00:15:00
7:35 PM,69.8,21.2,16,30.11,10.0,SSE,8.1,-,N/A,,Clear,160,2013-10-08 00:35:00
7:55 PM,68.2,22.5,18,30.11,10.0,SSE,10.4,-,N/A,,Clear,160,2013-10-08 00:55:00
8:15 PM,68.0,23.9,19,30.12,10.0,SSE,11.5,-,N/A,,Clear,160,2013-10-08 01:15:00
8:35 PM,66.4,25.0,21,30.12,10.0,SSE,11.5,-,N/A,,Clear,160,2013-10-08 01:35:00
8:55 PM,64.4,26.1,23,30.12,10.0,SSE,11.5,-,N/A,,Clear,160,2013-10-08 01:55:00
9:15 PM,63.5,26.8,25,30.13,10.0,SSE,11.5,-,N/A,,Clear,160,2013-10-08 02:15:00
9:35 PM,62.8,27.3,26,30.13,10.0,South,12.7,-,N/A,,Clear,170,2013-10-08 02:35:00
9:55 PM,60.8,27.1,28,30.13,10.0,South,10.4,-,N/A,,Clear,170,2013-10-08 02:55:00
10:15 PM,59.7,27.5,29,30.13,10.0,South,10.4,-,N/A,,Clear,180,2013-10-08 03:15:00
10:35 PM,58.5,27.3,30,30.13,10.0,South,10.4,-,N/A,,Clear,180,2013-10-08 03:35:00
10:55 PM,54.9,26.4,33,30.13,10.0,South,8.1,-,N/A,,Clear,180,2013-10-08 03:55:00
11:15 PM,56.8,26.6,31,30.13,10.0,South,10.4,-,N/A,,Clear,180,2013-10-08 04:15:00
11:35 PM,55.2,26.2,33,30.13,10.0,South,6.9,-,N/A,,Clear,190,2013-10-08 04:35:00
11:55 PM,56.8,26.6,31,30.13,10.0,South,8.1,-,N/A,,Clear,190,2013-10-08 04:55:00